Flag for Mexico Weather past 2 weeks in Playa del Carmen, Quintana Roo, Mexico

Now
88 °F

Broken clouds.


Feels Like: 93 °F
Forecast: 80 / 90 °F
Wind: 5 mph from Southwest

Location: Cozumel Civ / Mil

Current Time: Aug 27, 2014 at 2:19:04 PM

Latest Report: Aug 27, 2014 at 1:41 PM


Visibility: 8 mi

Pressure: 29.87 "Hg

Humidity: 55%

Dew point: 70 °F

Location of Playa del CarmenLocation

Historic Weather in Playa del Carmen — Graph

°F

Playa del Carmen temperature yesterday

Maximum temperature yesterday: 91 °F (at 2:51 PM)
Minimum temperature yesterday: 73 °F (at 5:45 PM)
Average temperature yesterday: 79 °F

Past Weeks' High & Low Weather Summary

 TemperatureHumidityPressure
High97 °F (Aug 20, 10:46 AM)100% (Aug 12, 10:47 PM)30.09 "Hg (Aug 12, 10:47 PM)
Low70 °F (Aug 14, 3:42 AM)53% (Aug 20, 10:46 AM)29.78 "Hg (Aug 25, 6:51 PM)
Average80 °F87%29.96 "Hg
* Reported Aug 12 12:50 PM — Aug 27 12:52 PM, Playa del Carmen, Weather by CustomWeather, © 2014

Note: Actual official high and low records may vary slightly from our data, if they occured in-between our weather recording intervals... More about our weather records

Advertising

Playa del Carmen weather history for previous 24 hours

 ConditionsComfort  
Time TempWeatherWind HumidityBarometerVisibility
12:52 PM
Aug 27
86 °FBroken clouds.8 mph70%29.85 "Hg8 mi
11:46 AM82 °FBroken clouds.8 mph84%29.91 "Hg8 mi
10:41 AM81 °FBroken clouds.6 mph89%29.91 "Hg8 mi
9:40 AM81 °FBroken clouds.7 mph94%29.93 "Hg8 mi
8:40 AM79 °FBroken clouds.5 mph94%29.89 "Hg8 mi
7:44 AM77 °FPartly sunny.6 mph100%29.87 "Hg8 mi
6:41 AM75 °FPassing clouds.5 mph100%29.83 "Hg7 mi
5:46 AM75 °FPassing clouds.No wind100%29.85 "Hg7 mi
4:43 AM75 °FPassing clouds.3 mph100%29.83 "Hg7 mi
3:48 AM75 °FPassing clouds.3 mph100%29.86 "Hg7 mi
2:46 AM75 °FPassing clouds.3 mph100%29.85 "Hg7 mi
1:49 AM73 °FPassing clouds.No wind100%29.86 "Hg7 mi
12:51 AM75 °FPassing clouds.No wind100%29.84 "Hg7 mi
11:49 PM
Aug 26
75 °FPassing clouds.No wind100%29.88 "Hg7 mi
10:46 PM75 °FPassing clouds.No wind100%29.89 "Hg7 mi
9:50 PM75 °FPassing clouds.No wind100%29.91 "Hg7 mi
8:44 PM73 °FPassing clouds.No wind100%29.86 "Hg7 mi
7:46 PM73 °FScattered clouds.No wind100%29.84 "Hg7 mi
6:45 PM73 °FBroken clouds.No wind100%29.80 "Hg7 mi
5:45 PM73 °FLight rain. Broken clouds.6 mph100%29.83 "Hg5 mi
5:27 PM77 °FSleet. Cloudy.N/A94%29.85 "HgN/A
4:43 PM84 °FBroken clouds.12 mph84%29.82 "Hg7 mi
3:51 PM90 °FScattered clouds.14 mph67%29.83 "Hg8 mi
2:51 PM91 °FScattered clouds.No wind56%29.81 "Hg8 mi
Weather by CustomWeather, © 2014

See weather overviewHow to use our weather pages